C/2020 K2 ( PanSTARRS )

Japanese version
Home page
Updated on October 9, 2020

---------------------------------------------------------------------

* Profile

Discovery Date May 21, 2020
Magnitude 20.5 mag
Discoverer Pan-STARRS 1 telescope (Haleakala)

* Pictures

* Orbital Elements

Epoch 2020 Aug. 19.0 TT = JDT 2459080.5
T 2020 Aug. 4.37296 TT                                  Rudenko
q   8.8784946            (2000.0)            P               Q
z  -0.0001834      Peri.   67.25478     +0.10582085     -0.29686561
 +/-0.0000097      Node   288.34230     -0.70831164     +0.64735314
e   1.0016286      Incl.   91.03750     +0.69792304     +0.70200052
From 74 observations 2020 May 21-Sept. 23, mean residual 0".4.

* Magnitudes Graph

        m1 = 6.0 + 5 log d + 10.0 log r

---------------------------------------------------------------------

The orbital elements are published on M.P.E.C. 2020-S188.
The magnitudes graphs are made with Comet for Windows.

---------------------------------------------------------------------

Copyright(C) Seiichi Yoshida (comet@aerith.net). All rights reserved.